Regional Weather Roundup
Issued by NWS

Home | Current Version | Previous Version | Graphics & Text | Print | Product List | Glossary On
Versions: 1 2 3 4 5 6 7 8 9 10 11 12 13 14 15 16 17 18 19 20 21 22 23 24 25 26 27 28 29 30 31 32 33 34 35 36 37 38 39 40 41 42 43 44 45 46 47 48 49 50
000
ASUS43 KLOT 261421
RWRIL

ILLINOIS REGIONAL WEATHER ROUNDUP
NATIONAL WEATHER SERVICE CHICAGO/ROMEOVILLE IL
900 AM CDT SUN APR 26 2015

NOTE: "FAIR" INDICATES FEW OR NO CLOUDS BELOW 12,000 FEET WITH NO
SIGNIFICANT WEATHER AND/OR OBSTRUCTIONS TO VISIBILITY.

* THESE STATIONS ARE NOT UNDER NWS QUALITY CONTROL. THEY ALSO MAY NOT
  REPORT WEATHER SUCH AS PRECIPITATION OR FOG.

ILZ001-002-007-009-015-016-024-261500-
NORTHWEST ILLINOIS

CITY           SKY/WX    TMP DP  RH WIND       PRES   REMARKS
MOLINE         SUNNY     46  28  49 E12       30.02R
STERLING*      SUNNY     46  32  57 E13       30.03R
SAVANNA*       SUNNY     46  29  52 NE10      30.04R
$$

ILZ003-004-008-010-011-017-018-261500-
NORTH CENTRAL ILLINOIS

CITY           SKY/WX    TMP DP  RH WIND       PRES   REMARKS
ROCKFORD       SUNNY     47  28  47 NE9       30.06R
FREEPORT*      SUNNY     44  31  60 NE9       30.06R
ROCHELLE*      SUNNY     42  33  72 NE10      30.03R
DE KALB*       SUNNY     43  32  65 NE12      30.02R
PERU*          SUNNY     46  32  59 E13G18    30.01R
$$

ILZ005-006-012>014-019>023-261500-
NORTHEAST ILLINOIS

CITY           SKY/WX    TMP DP  RH WIND       PRES   REMARKS
CHICAGO-OHARE  SUNNY     46  29  51 NE10      30.01R
CHICAGO-MIDWAY SUNNY     48  30  49 NE16      30.01R
AURORA         SUNNY     46  29  51 NE10      30.02R
LANSING*       SUNNY     45  31  59 NE10      30.01R
JOLIET*        SUNNY     47  33  57 NE8       30.01R
WAUKEGAN       SUNNY     46  30  53 N12       30.01R
DUPAGE AIRPORT SUNNY     46  31  55 NE10      30.01R
KANKAKEE*      SUNNY     46  34  65 NE10      29.99R
WHEELING       SUNNY     46  28  49 NE10      30.03R
MORRIS*        SUNNY     46  33  59 NE7       29.99R
ROMEOVILLE*    SUNNY     46  31  56 NE9       30.01R
NORTHERLY ISL    N/A     43  32  65 N12         N/A
$$

LMZ740>746-261500-
SOUTHERN LAKE MICHIGAN

STATION/POSITION SKY/WX   TEMP    WIND        PRES    VSBY  WAVE
                          AIR SEA DIR/SP/G                  HT/PER
                          (F)     (DEG/KT/KT) (MB)    (MI)  (FT/S)
HARRISON CRIB              40      10/ 14/ 15   N/A
BURNHAM HARBOR             44     360/  8/ 13   N/A
CALUMET HARBOR             42      20/  8/ 13   N/A
BURNS HARBOR               43      50/ 14/ 16 1015.6R
MICHIGAN CITY              40     350/ 14/ 16   N/A
MICHIGAN CITY 6N           39 45   30/ 10/ 14   N/A           3/ 6
$$

ILZ025>027-034>036-040-047-049-050-058-095>099-261500-
WEST-CENTRAL ILLINOIS

CITY           SKY/WX    TMP DP  RH WIND       PRES   REMARKS
QUINCY         CLOUDY    46  34  62 N7        29.98R
GALESBURG*     SUNNY     44  34  66 NE9       30.00R
MACOMB*        SUNNY     46  36  67 NE12      30.02R
JACKSONVILLE*  CLOUDY    48  37  65 NE8       29.97R
PITTSFIELD*    MOSUNNY   49  37  62 NE9       29.98R
$$

ILZ028>032-037-038-041>044-048-051>054-059>061-261500-
CENTRAL ILLINOIS

CITY           SKY/WX    TMP DP  RH WIND       PRES   REMARKS
PONTIAC        SUNNY     46  38  74 NE16      29.99R
BLOOMINGTON    SUNNY     45  37  73 NE17      29.97R
DECATUR        SUNNY     48  38  68 NE9       29.95R
PEORIA         SUNNY     48  32  53 E13G20    29.98R
LACON*         SUNNY     45  32  60 NE9       29.99R
LINCOLN*       SUNNY     47  38  71 N8        29.97R
SPRINGFIELD    SUNNY     49  38  65 N9        29.97R
TAYLORVILLE    SUNNY     46  36  66 NE14      29.95S
$$

ILZ033-039-045-046-055>057-062-063-261500-
EAST-CENTRAL ILLINOIS

CITY           SKY/WX    TMP DP  RH WIND       PRES   REMARKS
CHAMPAIGN      SUNNY     47  38  71 N9        29.94R
DANVILLE*      SUNNY     45  37  73 NE9       29.92R
RANTOUL*       SUNNY     46  38  73 NE12      29.95R
MATTOON        SUNNY     48  35  60 NE15      29.92R
PARIS*         SUNNY     48  37  65 NE10G16   29.93R
$$

ILZ079-100>102-261500-
SOUTHWEST ILLINOIS

CITY           SKY/WX    TMP DP  RH WIND       PRES   REMARKS
ALTON          SUNNY     48  36  61 NE13G21   29.93R
BELLEVILLE     SUNNY     51  42  71 NE7       29.91R
CAHOKIA*       MOSUNNY   51  40  65 NE10      29.93R
SPARTA*        CLOUDY    48  40  75 N9        29.92R
$$

ILZ064>066-069>071-074>076-080>082-084>086-088>090-092>094-261500-
SOUTH-CENTRAL ILLINOIS

CITY           SKY/WX    TMP DP  RH WIND       PRES   REMARKS
CARBONDALE     CLOUDY    49  42  77 N8        29.88R
CAIRO*         CLOUDY    50  46  86 N12       29.86R
EFFINGHAM*     SUNNY     49  32  51 NE7       29.93R
MARION         CLOUDY    50  45  81 N16       29.88R
MT. VERNON     SUNNY     52  36  54 NE10G22   29.90R
CENTRALIA*     MOSUNNY   52  36  53 NE8       29.90R
SALEM*         SUNNY     51  36  57 NE10G18   29.91R
METROPOLIS*    CLOUDY    50  49  95 N8        29.85R
$$

ILZ067-068-072-073-078-083-087-091-261500-
SOUTHEAST ILLINOIS

CITY           SKY/WX    TMP DP  RH WIND       PRES   REMARKS
LAWRENCEVILLE  MOSUNNY   50  37  61 NE16      29.89R
FLORA*         SUNNY     48  34  58 NE14G20   29.90R
FAIRFIELD*     MOSUNNY   49  37  61 NE12G18   29.87R
HARRISBURG*    CLOUDY    51  42  72 NE10G20   29.89R
ROBINSON*      SUNNY     50  36  59 NE14      29.91R
CARMI*         CLOUDY    49  35  57 N12       29.87R
$$

ABBREVIATIONS USED IN REMARKS
   TC - TEMPERATURE IN CELSIUS
  WCI - WIND CHILL INDEX
   HX - HEAT INDEX
  VSB - VISIBILITY
$$



USA.gov is the U.S. government's official web portal to all federal, state and local government web resources and services.